www.pogodaiklimat.ru

Погода и климат >> Архив погоды >> Россия >> Хабаровский край >> Софийский Прииск


АРХИВ ПОГОДЫ в Софийском Прииске

Время (UTC), дата Ветер
(напр.,м/с)
 
Видим.   Явления Облачность Т
(С)
Тd
(С)
f
(%)
Тe
(С)
Тes
(С)
Комфортность P
(гПа)
Po
(гПа)
Тmin
(С)
Tmax
(С)
R
(мм)
R24
(мм)
S
(см)
18 16.07 В 1 50 км {ливн. осадки} 10/10 1000 м
[Cb cap]
+13.9 +13.2 96 +14 +14 1009.0 907.8
21 16.07 СВ 1 50 км 10/10 1000 м
[Cb cap]
+14.8 +14.0 95 +15 +15 1008.1 907.4 +13.6 2
00 17.07 СВ 1 50 км 8/8 1000 м
[Cb cap Ci fib]
+20.4 +15.2 72 +24 +27 комфорт 1005.3 906.7
03 17.07 З 2 50 км 8/6 1000 м
[Cb cap Ci fib]
+22.8 +14.6 60 +26 +32 жарко 1002.7 905.1
06 17.07 ЮЗ 2 50 км 8/8 1000 м
[Cb cap]
+23.1 +13.8 56 +27 +29 душно 1000.7 903.3
09 17.07 СЗ 2 50 км гроза без осадков 10/8 1000 м
[Cb cap Ci sp]
+20.9 +14.3 66 +24 +25 комфорт 1001.2 903.1 +24.9
12 17.07 СЗ 1 20 км слаб. ливневой дождь {гроза} 10/10 600 м
[Cb cap]
+15.4 +14.4 94 +16 +16 1004.4 904.3
15 17.07 штиль 0 50 км {ливн. осадки} 10/8 1000 м
[Cb cap Ci fib]
+14.0 +13.2 95 +14 +14 1004.5 903.8
18 17.07 В 1 20 км местами туман поземный {ливн. осадки} 9/9 1000 м
[Cb cap]
+11.9 +11.3 96 +12 +12 1004.7 903.3
21 17.07 штиль 0 50 км туман поземный 10/10 1000 м
[Sc]
+12.8 +12.0 95 +12 +12 1004.1 903.0 +11.6 5
00 18.07 СЗ 1 50 км 9/9 1000 м
[Sc]
+18.0 +15.2 84 +19 +20 1001.7 902.7
03 18.07 ЮЗ 2 50 км 9/8 1000 м
[Cb cap Ci sp]
+23.8 +13.9 54 +26 +29 жарко 998.1 901.2
06 18.07 СЗ 1 50 км гроза, ливневой дождь 10/10 1000 м
[Cb cap]
+15.9 +15.2 96 +17 +17 1001.6 901.9
09 18.07 С 1 50 км {гроза, ливн. осадки} 9/8 1000 м
[Cb cap Ci sp]
+16.6 +15.8 95 +17 +18 1000.7 901.4 +24.4 12
12 18.07 В 1 50 км туман поземный 6/4 1000 м
[Cb cap Ci sp]
+14.1 +13.4 96 +14 +14 1003.4 902.8
15 18.07 штиль 0 50 км туман 3/1 1000 м
[Cb cap Ci fib]
+12.0 +11.4 96 +11 +11 1004.7 903.3
18 18.07 В 1 10 км туман 3/0
[Ci fib]
+11.4 +10.8 96 +11 +11 1004.9 903.3
21 18.07 СВ 1 500 м туман ?/? +11.3 +10.7 96 +11 +11 1005.8 904.0 +10.6
00 19.07 СЗ 1 4000 м туман местами 10/10 1000 м
[Cb cap]
+15.5 +14.9 96 +16 +16 1004.5 904.4
03 19.07 З 2 50 км {туман} 3/3 1000 м
[Cu med, cong Ci fib]
+21.7 +15.3 67 +25 +36 комфорт 1002.2 904.3
06 19.07 З 2 50 км {туман} 6/4 1000 м
[Cu med, cong Ci fib]
+26.0 +13.6 46 +28 +34 жарко 999.7 903.3
09 19.07 З 1 50 км 6/5 1000 м
[Cb cap Ci fib]
+24.8 +15.0 54 +28 +29 жарко 1000.9 904.1 +26.6
12 19.07 Ю 1 50 км 8/8 1000 м
[Cb cap]
+18.1 +16.0 88 +19 +19 1005.6 906.2
15 19.07 штиль 0 50 км местами туман поземный 5/0
[Ci fib]
+12.2 +11.6 96 +12 +12 1008.9 907.1
18 19.07 В 2 50 км 5/3 1000 м
[Sc Ci]
+11.8 +11.2 96 +11 +11 1010.0 907.9
21 19.07 СВ 1 50 км 9/9 1000 м
[Sc]
+13.4 +12.4 94 +13 +14 1010.5 908.9 +10.5
00 20.07 В 2 50 км 8/8 1000 м
[Cb cap]
+22.0 +16.5 71 +26 +28 душно 1007.0 908.8
03 20.07 В 1 50 км в посл. час ливневой дождь 8/6 1000 м
[Cb cap Ci fib]
+22.4 +17.4 73 +27 +34 душно 1006.5 908.5
06 20.07 В 3 50 км {гроза, ливн. осадки} 9/9 1000 м
[Cb cap]
+20.4 +16.9 80 +24 +25 комфорт 1006.6 907.9
09 20.07 В 3 50 км {ливн. осадки} 10/10 1000 м
[Cb cap]
+19.5 +17.8 90 +22 +22 комфорт 1007.2 908.2 +25.9 13
12 20.07 В 2 50 км в посл. час ливневой дождь 10/10 600 м
[Cb cap]
+17.9 +16.1 89 +18 +18 1008.6 908.8
15 20.07 В 3 20 км в посл. час ливневой дождь 10/10 600 м
[Cb cap]
+16.7 +16.0 96 +16 +16 1008.9 908.7
18 20.07 СВ 1 50 км {ливн. осадки} 10/10 1000 м
[Cb cap]
+16.3 +15.5 95 +17 +17 1008.9 908.6
21 20.07 ЮВ 1 50 км местами туман поземный 10/10 1000 м
[Cb cap]
+16.5 +15.7 95 +17 +17 1008.5 908.3 +15.9 21
00 21.07 штиль 0 50 км 10/1 1000 м
[Cb cap Ac As]
+20.6 +16.9 79 +24 +27 комфорт 1007.6 908.8
03 21.07 В 1 50 км 10/10 1000 м
[Cb cap]
+22.6 +16.2 67 +27 +27 душно 1006.4 908.4
06 21.07 СВ 2 50 км 10/4 1000 м
[Cb cap Cc]
+24.8 +16.5 60 +28 +33 жарко 1004.4 907.3
09 21.07 В 3 50 км 10/5 1000 м
[Cb cap As trans]
+19.7 +14.5 72 +22 +22 комфорт 1006.5 907.5 +25.4
12 21.07 СВ 3 50 км слаб. ливневой дождь 10/10 1000 м
[Cb cap]
+14.7 +13.4 92 +14 +14 1009.8 908.8
15 21.07 В 3 50 км {ливн. осадки} 10/10 1000 м
[Cb cap]
+14.0 +12.0 88 +13 +13 1009.2 908.0
18 21.07 В 3 50 км {ливн. осадки} 10/10 1000 м
[Cb cap]
+14.5 +12.0 85 +14 +14 1007.5 906.6
21 21.07 В 2 10 км ливневой дождь 10/10 600 м
[Cb cap]
+14.3 +13.3 94 +14 +14 1006.1 905.3 +13.9 11
00 22.07 В 1 20 км слаб. ливневой дождь 10/10 1000 м
[Cb cap]
+17.0 +15.9 93 +18 +18 1004.1 904.5
03 22.07 В 2 50 км {ливн. осадки} 10/10 1000 м
[Cb cap]
+20.2 +18.0 87 +24 +24 комфорт 1000.4 902.4
06 22.07 СЗ 2 50 км слаб. ливневой дождь 10/10 1000 м
[Cb cap]
+20.6 +18.9 90 +25 +25 комфорт 998.0 900.4
09 22.07 В 2 50 км в посл. час ливневой дождь 10/10 1000 м
[]
+16.5 +15.7 95 +17 +17 998.5 899.3 +24.3 44
12 22.07 В 4 20 км слаб. ливневой дождь 10/10 1000 м
[Cb cap]
+16.0 +14.6 91 +15 +15 997.5 896.6
15 22.07 В 4 20 км слаб. ливневой дождь 10/10 1000 м
[Cb cap]
+14.9 +13.9 94 +14 +14 995.8 896.4
18 22.07 СЗ 1 50 км в посл. час ливневой дождь 10/10 1000 м
[Cb cap]
+14.8 +14.1 96 +15 +15 995.7 896.2
21 22.07 штиль 0 10 км слаб. ливневой дождь 10/10 600 м
[Cb cap]
+15.0 +14.3 96 +15 +15 995.8 896.4 +14.5 36
00 23.07 С 1 10 км в посл. час туман {ливн. осадки} 10/10 600 м
[Cb cap]
+18.1 +16.4 90 +19 +19 994.8 896.5
03 23.07 СЗ 2 50 км 10/8 1000 м
[Cb cap Ci fib]
+22.0 +15.6 67 +26 +28 душно 993.8 896.2
06 23.07 В 1 50 км гроза без осадков {ливн. осадки} 10/8 1000 м
[Cb cap Ci fib]
+20.7 +16.9 79 +25 +27 комфорт 994.5 897.1
09 23.07 В 3 20 км в посл. час гроза {ливн. осадки} 9/9 600 м
[Cb cap]
+14.1 +12.9 92 +13 +13 999.3 899.1 +22.8 16
12 23.07 В 2 50 км {гроза, ливн. осадки} 10/10 600 м
[Cb cap]
+12.0 +9.6 85 +11 +11 1003.1 901.7

 

Местоположение метеостанции Софийский Прииск (Хабаровский край, Россия): широта 52.27 долгота 133.90 высота над уровнем моря 902 м.

В архиве по умолчанию представлена погода в Софийском Прииске за последнюю неделю. Архивные данные за месяц целиком и за предыдущие месяцы, начиная с января 2011 года, Вы можете получить, выбрав интересующий диапазон дат из раскрывающегося списка и нажав кнопку "Ввод!".


*Определитесь, кто Вы:
робот инопланетянин человек

Внимание! Время в таблицах - всемирное. Для получения местного времени необходимо прибавить поправку, которая равна 10 ч.

Смотрите также архив погоды в соседних городах и на ближайших метеорологических станциях:

Погода в Усть-Умальте (Хабаровский край, Россия) (86 км)
Погода в Экимчане (Амурская область, Россия) (113 км)
Погода в Хуларине (Хабаровский край, Россия) (121 км)
Погода в Веселой Горке (Хабаровский край, Россия) (129 км)
Погода в Чегдомыне (Хабаровский край, Россия) (140 км)
Погода в Стойбе (Амурская область, Россия) (160 км)
Погода в Бурукане (Хабаровский край, Россия) (166 км)
Погода в Им. Полины Осипенко (Хабаровский край, Россия) (177 км)
Погода в Чекунде (Хабаровский край, Россия) (195 км)
Погода в Февральске (Амурская область, Россия) (212 км)

Пояснения к столбцам:

Ветер - указаны скорость ветра в м/с - средняя за 10 мин, порывы в срок и между сроками (в фигурных скобках) и направление, откуда дует ветер: С - северный, СВ - северо-восточный, В - восточный, ЮВ - юго-восточный, Ю - южный, ЮЗ - юго-западный, З - западный, СЗ - северо-западный.
Видимость - горизонтальная дальность видимости в метрах или километрах. При видимости от 1 до 10 км при отсутствии осадков обычно наблюдается дымка, при ухудшении видимости до 1 км и менее - туман. В сухую погоду видимость может ухудшаться дымом, пылью или мглою.
Явления - указаны атмосферные явления, наблюдавшиеся в срок или в последний час перед сроком; фигурными скобками обозначены явления, наблюдавшиеся между сроками (за 1-3 часа до срока); квадратными скобками обозначены град или гололедные отложения с указанием их диаметра в мм.
Облачность - указаны через наклонную черту общая и нижняя облачность в баллах и высота нижней границы облаков в метрах; квадратными скобками обозначены формы облаков: Ci - перистые, Cs - перисто-слоистые, Cc - перисто-кучевые, Ac - высококучевые, As - высокослоистые, Sc - слоисто-кучевые, Ns - слоисто-дождевые, Cu - кучевые, Cb - кучево-дождевые. Подробнее классификацию облаков см. в Атласе облаков (PDF).
T - Температура воздуха - температура, измеренная на высоте 2 м над землей.
Td - Температура точки росы - температура, при понижении до которой содержащийся в воздухе водяной пар достигнет насыщения.
f - Относительная влажность воздуха - влажноcть воздуха, измеренная на высоте 2 м над землей.
Te - Эффективная температура - температура, которую ощущает одетый по сезону человек в тени. Характеристика душности погоды. При расчете учитывается влияние влажности воздуха и скорости ветра на теплоощущения человека.
Tes - Эффективная температура на солнце - температура, которую ощущает человек, с поправкой на солнечный нагрев. Характеристика знойности погоды. Зависит от высоты солнца над горизонтом, облачности и скорости ветра. Ночью, в пасмурную погоду, а также при ветре 12 м/с и более поправка равна нулю.
P - Атмосферное давление - приведенное к уровню моря атмосферное давление.
Po - Атмосферное давление - измеренное на уровне метеостанции атмосферное давление.
Tmin - Минимальная температура - минимум температуры воздуха на высоте 2 м над землей.
Tmax - Максимальная температура - максимум температуры воздуха на высоте 2 м над землей.
R - Количество осадков - Количество выпавших осадков за период времени, мм. При наведении курсора мыши на число - период времени, за который выпало указанное количество осадков.
R24 - Количество осадков - Количество выпавших осадков за 24 часа, мм.
S - Снежный покров - Высота снежного покрова, см. При наведении курсора мыши на число - состояние снежного покрова и степень покрытия местности в баллах.